Hourly Weather Roundup
Issued by NWS Central Illinois

Home | Current Version | Previous Version | Text Only | Print | Product List | Glossary On
Versions: 1 2 3 4 5 6 7 8 9 10 11 12 13 14 15 16 17 18 19 20 21 22 23 24 25 26 27 28 29 30 31 32 33 34 35 36 37 38 39 40 41 42 43 44 45 46 47 48 49 50
000
NZUS43 KILX 170510
HWRILX

AREA WEATHER ROUNDUP
NATIONAL WEATHER SERVICE, LINCOLN IL
1200 AM CDT WED SEP 17 2014


CITY           SKY/WX    TMP DP  RH WIND       PRES   REMARKS
BLOOMINGTON    CLEAR     51  44  77 NE6       30.10F
CHAMPAIGN      CLEAR     48  46  93 CALM      30.10F
DECATUR        CLEAR     52  48  86 W3        30.10F
FLORA          FOG       46  46  99 CALM      30.11F VSB 1/4
GALESBURG      CLEAR     44  43  94 CALM      30.10S
JACKSONVILLE   CLEAR     52  50  92 SW3       30.10F
LACON          CLEAR     46  43  91 CALM      30.09S
LAWRENCEVILLE  CLEAR     48  47  96 CALM      30.11F FOG
LITCHFIELD     CLEAR     47  46  99 CALM      30.10S
$$


CITY           SKY/WX    TMP DP  RH WIND       PRES   REMARKS
LINCOLN        CLEAR     49  46  90 CALM      30.08S
MACOMB         CLEAR     44  43  96 CALM      30.11S
MATTOON        CLEAR     50  48  93 SW3       30.10F FOG
MT CARMEL AP   FOG       50  48  93 CALM      30.11F VSB 1/4
OLNEY-NOBLE AP CLEAR     45  45 100 CALM      30.11S FOG
PARIS          CLEAR     47  47 100 CALM      30.11F
PEORIA         CLEAR     51  47  86 CALM      30.09F
PONTIAC        CLEAR     46  46 100 CALM      30.10S
RANTOUL        CLEAR     53  46  77 CALM      30.11S
ROBINSON       CLEAR     47  47  99 CALM      30.12S FOG
SPRINGFIELD    CLEAR     49  47  93 CALM      30.10S
TAYLORVILLE    CLEAR     48  46  93 CALM      30.10S
$$

...REGIONAL REPORTS...


CITY           SKY/WX    TMP DP  RH WIND       PRES   REMARKS
CHICAGO O`HARE CLEAR     55  47  74 CALM      30.09S
KANKAKEE       CLEAR     45  44  98 CALM      30.10S
MOLINE         CLEAR     47  45  93 CALM      30.09S
MOUNT VERNON   CLEAR     48  45  87 CALM      30.11F
PITTSFIELD     CLEAR     51  49  92 CALM      30.10F
QUINCY         CLEAR     54  51  90 S5        30.08F FOG
ROCKFORD       CLEAR     46  43  89 CALM      30.11S
$$


CITY           SKY/WX    TMP DP  RH WIND       PRES   REMARKS
BURLINGTON     CLEAR     49  47  93 CALM      30.08F
CEDAR RAPIDS   CLEAR     47  45  93 SE3       30.07F
DES MOINES     PTCLDY    56  49  77 SE7       30.05F
KIRKSVILLE     CLEAR     50  48  93 SE3       30.08S
OTTUMWA        CLEAR     49  47  93 SE3       30.07S
ST LOUIS       CLEAR     55  51  86 CALM      30.10F
$$


CITY           SKY/WX    TMP DP  RH WIND       PRES   REMARKS
TERRE HAUTE    PTCLDY    48  46  93 CALM      30.11F
EVANSVILLE     CLEAR     51  49  92 CALM      30.11S
INDIANAPOLIS   CLEAR     51  49  92 SW5       30.10F
LAFAYETTE      CLEAR     47  47 100 MISG      30.10S
MADISON        CLEAR     45  43  93 CALM      30.07F
MILWAUKEE      CLEAR     51  44  77 SW5       30.08F
$$





USA.gov is the U.S. government's official web portal to all federal, state and local government web resources and services.